Other Surface Observations
Issued by NWS Charleston, SC

Home | Current Version | Previous Version | Text Only | Print | Product List | Glossary On
Versions: 1 2 3 4 5 6 7 8 9 10 11 12 13 14 15 16 17 18 19 20 21 22 23 24 25 26 27 28 29 30 31 32 33 34 35 36 37 38 39 40 41 42 43 44 45 46 47 48 49 50
000
SXUS52 KCHS 010925
OSOCHS

MARINE OBSERVATIONS
NATIONAL WEATHER SERVICE CHARLESTON SC
500 AM EDT FRI AUG 01 2014

...DOWNTOWN CHARLESTON AND HARBOR...

CITY           SKY/WX    TMP DP  RH WIND       PRES   REMARKS
WATERFRONT PRK   N/A     79 N/A N/A N5          N/A
FORT JOHNSON   NOT AVBL

...LAKE MOULTRIE...

CITY           SKY/WX    TMP DP  RH WIND       PRES   REMARKS
PINOPOLIS        N/A     75  73  94 NE6       29.92F

...LAKE AND SUPPLEMENTAL COASTAL OBSERVATIONS...

STATION/POSITION TIME  TEMP    WIND        PRES    WAVE   SWELL
                       AIR SEA DIR/SP/G            HT/PER HT/PER/DIR
                 (UTC) (F)     (DEG/KT/KT) (MB)    (FT/S) (FT/S/D)
FORT PULASKI     0900   79     350/  5/  6 1014.7F
SAPELO ISLAND    0900   81     140/  3     1014.0F
UPR LAKE MARION  NOT AVBL
WINYAH BAY       0900   79     120/ 12     1015.0S
LAKE MURRAY      0900   69      10/  2/  5 1016.3S
ACE BASIN NERRS  0900   72     360/  2     1015.0S


...C-MAN AND BUOY OBSERVATIONS...

STATION/POSITION TIME  TEMP    WIND        PRES    WAVE   SWELL
                       AIR SEA DIR/SP/G            HT/PER HT/PER/DIR
                 (UTC) (F)     (DEG/KT/KT) (MB)    (FT/S) (FT/S/D)
BUOY 41004       0900   81 83  170/ 14/ 17 1014.4R   4/ 6   2/ 8
BUOY 41008       0900   83 85  180/ 12/ 14 1013.9F   3/ 5   2/ 80/ 7
FOLLY BEACH CMAN 0900   76     330/  5/  6 1015.4F
CAPERS NS BUOY   0800   82     190/  4/  6   N/A
FRIPP NS BUOY    NOT AVBL
5E ST. MARYS GA  0900      85                N/A     3/ 4
FRYING PAN BUOY  NOT AVBL
BUOY 41025       0900          VRB 14/ 16  1018.7F   4/ 7   2/130/ 7
CAPE LOOKOUT NC  0900   80      90/ 16/ 18 1017.7F
BUOY 41002       0817   81 81  170/ 10/ 12 1018.3F   4/ 7   3/120/ 7
BUOY 41010       0900   83 84  150/ 12/ 14 1015.1F   3/ 5   2/ 90/ 8
BUOY 41012       NOT AVBL
ST AUGUSTINE FL  0900   80     200/  8/  9 1014.2F


$$



USA.gov is the U.S. government's official web portal to all federal, state and local government web resources and services.